Total_Precipitation_Accumulation
0.00 0.00 0.00 0.01 0.03 0.02 0.05 0.03 0.05 0.03 0.04 0.03 0.01 0.03 0.01 0.03 0.00 0.01 0.04 0.06 0.06 0.07 0.08 0.01 0.01 0.00 0.00 0.02 0.00 0.00 0.01 0.01 0.03 0.06 0.05 0.04 0.02 0.00 0.00 0.01 0.00 0.01 0.04 0.04
0.00 0.00 0.00 0.00 0.02 0.03 0.09 0.04 0.02 0.01 0.03 0.02 0.02 0.04 0.03 0.10 0.09 0.04 0.02 0.06 0.12 0.07 0.05 0.06 0.07 0.00 0.00 0.00 0.00 0.01 0.00 0.01 0.01 0.01 0.05 0.09 0.05 0.01 0.00 0.00 0.01 0.00 0.00 0.01
0.00 0.00 0.00 0.01 0.01 0.02 0.03 0.02 0.02 0.01 0.01 0.09 0.18 0.17 0.08 0.14 0.09 0.04 0.00 0.00 0.02 0.09 0.11 0.20 0.11 0.02 0.00 0.00 0.00 0.00 0.00 0.00 0.00 0.02 0.06 0.07 0.05 0.02 0.01 0.00 0.01 0.00 0.00 0.00
0.00 0.00 0.02 0.06 0.01 0.01 0.01 0.01 0.01 0.00 0.02 0.01 0.13 0.22 0.10 0.37 0.13 0.02 0.00 0.00 0.00 0.03 0.03 0.04 0.15 0.05 0.01 0.00 0.00 0.00 0.00 0.00 0.00 0.01 0.05 0.05 0.02 0.01 0.04 0.01 0.01 0.03 0.00 0.00
0.00 0.00 0.00 0.07 0.02 0.03 0.00 0.01 0.01 0.04 0.04 0.01 0.03 0.01 0.04 0.23 0.08 0.02 0.00 0.00 0.02 0.03 0.04 0.08 0.17 0.08 0.01 0.00 0.00 0.00 0.01 0.02 0.00 0.00 0.01 0.07 0.04 0.03 0.11 0.05 0.10 0.08 0.01 0.00
0.00 0.00 0.00 0.00 0.02 0.03 0.01 0.04 0.05 0.09 0.04 0.01 0.01 0.00 0.02 0.02 0.02 0.04 0.03 0.01 0.01 0.05 0.08 0.27 0.34 0.19 0.11 0.01 0.00 0.00 0.00 0.01 0.00 0.00 0.01 0.05 0.05 0.04 0.09 0.14 0.15 0.06 0.03 0.00
0.00 0.00 0.00 0.01 0.02 0.02 0.03 0.06 0.08 0.15 0.12 0.05 0.08 0.08 0.03 0.03 0.01 0.02 0.01 0.01 0.02 0.06 0.01 0.10 0.30 0.06 0.04 0.01 0.00 0.00 0.00 0.00 0.00 0.00 0.01 0.04 0.06 0.09 0.13 0.25 0.26 0.18 0.08 0.02
0.00 0.00 0.00 0.02 0.03 0.04 0.04 0.12 0.14 0.09 0.04 0.07 0.11 0.14 0.11 0.22 0.02 0.01 0.02 0.05 0.04 0.03 0.00 0.01 0.01 0.05 0.02 0.00 0.00 0.00 0.00 0.00 0.00 0.02 0.02 0.02 0.05 0.12 0.13 0.21 0.17 0.18 0.06 0.04
0.00 0.00 0.00 0.00 0.02 0.01 0.01 0.02 0.04 0.03 0.01 0.06 0.04 0.03 0.07 0.03 0.00 0.00 0.01 0.01 0.02 0.01 0.00 0.00 0.00 0.03 0.03 0.01 0.00 0.00 0.00 0.00 0.02 0.13 0.14 0.03 0.03 0.07 0.09 0.12 0.26 0.23 0.14 0.15
0.00 0.00 0.00 0.00 0.01 0.02 0.02 0.04 0.09 0.04 0.05 0.06 0.16 0.06 0.04 0.02 0.02 0.02 0.03 0.00 0.00 0.00 0.00 0.00 0.00 0.01 0.03 0.01 0.00 0.00 0.00 0.00 0.02 0.05 0.14 0.08 0.02 0.03 0.03 0.13 0.23 0.22 0.25 0.30
0.00 0.00 0.00 0.00 0.00 0.00 0.01 0.01 0.07 0.04 0.14 0.09 0.07 0.03 0.05 0.12 0.06 0.01 0.04 0.02 0.01 0.00 0.00 0.00 0.00 0.01 0.01 0.01 0.01 0.00 0.00 0.02 0.07 0.21 0.14 0.17 0.05 0.01 0.03 0.07 0.13 0.27 0.41 0.50
0.00 0.00 0.00 0.00 0.00 0.00 0.00 0.00 0.00 0.00 0.00 0.00 0.02 0.01 0.01 0.00 0.01 0.01 0.01 0.02 0.01 0.00 0.00 0.00 0.01 0.04 0.03 0.01 0.00 0.00 0.00 0.02 0.05 0.07 0.10 0.13 0.10 0.04 0.03 0.03 0.12 0.42 0.58 0.64
0.00 0.00 0.00 0.00 0.00 0.00 0.00 0.00 0.00 0.00 0.00 0.00 0.00 0.02 0.04 0.01 0.01 0.01 0.00 0.00 0.00 0.00 0.00 0.00 0.03 0.03 0.02 0.01 0.00 0.00 0.00 0.00 0.02 0.03 0.02 0.04 0.09 0.02 0.04 0.04 0.13 0.26 0.51 0.79
0.00 0.00 0.00 0.00 0.00 0.00 0.00 0.00 0.00 0.00 0.00 0.01 0.02 0.01 0.04 0.01 0.08 0.05 0.00 0.00 0.00 0.00 0.00 0.00 0.00 0.00 0.01 0.03 0.00 0.00 0.00 0.00 0.02 0.05 0.00 0.00 0.01 0.05 0.15 0.16 0.20 0.25 0.40 0.51
0.00 0.00 0.00 0.00 0.00 0.00 0.00 0.00 0.00 0.00 0.00 0.00 0.03 0.01 0.03 0.02 0.05 0.04 0.03 0.01 0.00 0.00 0.00 0.00 0.00 0.00 0.00 0.01 0.00 0.00 0.00 0.00 0.01 0.00 0.00 0.00 0.00 0.01 0.10 0.14 0.14 0.24 0.43 0.83
0.00 0.00 0.00 0.00 0.00 0.00 0.00 0.00 0.00 0.00 0.00 0.00 0.00 0.01 0.00 0.01 0.12 0.06 0.02 0.02 0.00 0.00 0.00 0.00 0.00 0.00 0.00 0.00 0.00 0.00 0.00 0.00 0.00 0.00 0.00 0.00 0.00 0.01 0.02 0.08 0.18 0.31 0.44 0.44
0.00 0.00 0.00 0.00 0.00 0.00 0.00 0.00 0.00 0.00 0.00 0.00 0.00 0.01 0.02 0.04 0.11 0.01 0.01 0.02 0.04 0.01 0.00 0.00 0.00 0.00 0.00 0.00 0.00 0.00 0.00 0.00 0.02 0.02 0.01 0.03 0.06 0.02 0.03 0.10 0.17 0.19 0.32 0.40
0.00 0.00 0.00 0.00 0.00 0.00 0.00 0.00 0.00 0.00 0.00 0.00 0.00 0.00 0.01 0.00 0.02 0.04 0.06 0.07 0.02 0.01 0.00 0.00 0.00 0.00 0.00 0.00 0.00 0.00 0.00 0.00 0.00 0.01 0.00 0.00 0.00 0.01 0.06 0.12 0.17 0.24 0.34 0.32
0.00 0.00 0.00 0.00 0.00 0.00 0.00 0.00 0.00 0.00 0.00 0.00 0.00 0.00 0.00 0.00 0.00 0.04 0.12 0.16 0.01 0.00 0.00 0.00 0.00 0.00 0.00 0.00 0.00 0.00 0.00 0.00 0.00 0.00 0.00 0.00 0.00 0.00 0.06 0.11 0.19 0.29 0.24 0.30
0.00 0.00 0.00 0.00 0.00 0.00 0.00 0.00 0.00 0.00 0.00 0.00 0.00 0.00 0.00 0.00 0.00 0.00 0.05 0.05 0.00 0.00 0.00 0.00 0.00 0.00 0.00 0.00 0.00 0.00 0.00 0.00 0.00 0.00 0.00 0.00 0.00 0.00 0.00 0.03 0.18 0.18 0.11 0.22
0.00 0.00 0.00 0.00 0.00 0.00 0.00 0.00 0.00 0.00 0.00 0.00 0.00 0.00 0.00 0.00 0.00 0.02 0.01 0.01 0.03 0.02 0.00 0.00 0.00 0.00 0.00 0.00 0.00 0.00 0.00 0.00 0.00 0.00 0.00 0.00 0.00 0.00 0.00 0.02 0.04 0.05 0.06 0.09
0.00 0.00 0.00 0.00 0.00 0.00 0.00 0.00 0.00 0.00 0.00 0.00 0.00 0.00 0.00 0.00 0.00 0.01 0.01 0.01 0.06 0.05 0.01 0.00 0.00 0.00 0.00 0.00 0.00 0.00 0.00 0.00 0.00 0.00 0.00 0.00 0.00 0.00 0.00 0.01 0.04 0.06 0.03 0.01
0.00 0.00 0.00 0.00 0.00 0.00 0.00 0.00 0.00 0.00 0.00 0.00 0.00 0.00 0.00 0.00 0.00 0.00 0.00 0.00 0.04 0.10 0.04 0.00 0.00 0.00 0.00 0.00 0.00 0.00 0.00 0.00 0.00 0.00 0.00 0.00 0.00 0.00 0.00 0.00 0.00 0.01 0.01 0.00
0.00 0.00 0.00 0.00 0.00 0.00 0.00 0.00 0.00 0.00 0.00 0.00 0.00 0.00 0.00 0.00 0.00 0.00 0.00 0.00 0.00 0.07 0.27 0.03 0.00 0.00 0.00 0.00 0.00 0.00 0.00 0.00 0.00 0.00 0.00 0.00 0.00 0.00 0.00 0.00 0.00 0.00 0.00 0.00
0.00 0.00 0.00 0.00 0.00 0.00 0.00 0.00 0.00 0.00 0.00 0.00 0.00 0.00 0.00 0.00 0.00 0.00 0.00 0.00 0.00 0.00 0.01 0.01 0.00 0.00 0.00 0.00 0.00 0.00 0.00 0.00 0.00 0.00 0.00 0.00 0.00 0.00 0.00 0.00 0.00 0.00 0.00 0.00
0.00 0.00 0.00 0.00 0.00 0.00 0.00 0.00 0.00 0.00 0.00 0.00 0.00 0.00 0.00 0.00 0.00 0.00 0.00 0.00 0.01 0.01 0.00 0.02 0.00 0.01 0.00 0.00 0.00 0.00 0.00 0.01 0.00 0.00 0.00 0.00 0.00 0.00 0.00 0.00 0.00 0.00 0.00 0.00